SCP
-0 -0 -0 -0 -0 -0 -0 -0 -0 -0 -0 -0 -0 -0 -0 -0 -0 -0 -0 -0 -0 -0 -0 -0 -0 -0 -0
-0 -0 -0 -0 -0 -0 -0 -0 -0 -0 -0 -0 -0 -0 -0 -0 -0 -0 -0 -0 -0 -0 -0 0 -0 -0 -0
-0 -0 -0 -0 -0 -0 -0 -0 -0 -0 -0 -0 -0 -0 -0 -0 -0 -0 -0 -0 -0 -0 0 0 0 0 0
0 -0 -0 -0 0 -0 0 -0 0 0 0 -0 0 -0 -0 -0 -0 -0 -0 0 0 0 0 0 0 0 0
0 0 0 0 0 0 0 0 0 0 0 0 0 0 0 0 0 0 0 0 0 0 0 0 0 0 0
0 0 0 0 0 0 0 0 0 0 0 0 0 0 0 0 0 0 0 0 0 0 0 0 0 0 0
0 0 0 0 0 0 0 0 0 0 0 0 0 0 0 0 0 0 0 0 0 0 0 0 0 0 0
0 0 0 0 0 0 0 0 0 0 0 0 0 0 0 0 0 0 0 0 0 0 0 0 0 0 0
0 0 0 0 0 0 0 0 0 0 0 0 0 0 0 0 0 0 0 0 0 0 0 0 0 0 0
0 0 0 0 0 0 0 0 0 0 0 0 0 0 0 0 0 0 0 0 0 0 0 0 0 0 0
0 0 0 0 0 0 0 0 0 0 0 0 0 0 0 0 0 0 0 0 0 0 0 0 0 0 0
0 0 0 0 0 0 0 0 0 0 0 0 0 0 0 0 0 0 0 0 0 0 0 0 0 0 0
0 0 0 0 0 0 0 0 0 0 0 0 0 0 0 0 0 0 0 0 0 0 0 0 0 0 0
0 0 0 0 0 0 0 0 0 0 0 0 0 0 0 0 0 0 0 0 0 0 0 0 0 0 0
0 0 0 0 0 0 0 0 0 0 0 0 0 0 0 0 0 0 0 0 0 0 0 0 0 0 0
0 0 0 0 0 0 0 0 0 0 0 0 0 0 0 0 0 0 0 0 0 0 0 0 0 0 0
Wind_Speed_500mb
26 23 21 17 16 16 14 14 15 17 16 19 20 20 20 19 19 21 21 23 25 28 30 33 40 41 37
31 27 25 21 18 16 14 12 12 15 15 19 20 21 22 22 22 22 21 21 24 28 30 31 32 43 47
31 32 28 24 22 20 20 16 14 15 16 16 16 17 18 20 21 22 23 23 23 24 22 20 34 38 43
33 32 30 27 27 26 25 20 18 18 19 17 16 13 12 12 16 18 19 21 22 24 22 24 35 31 44
38 34 32 31 31 32 32 27 29 24 20 19 17 16 13 8 9 13 15 16 20 20 23 30 32 30 38
38 42 38 37 34 33 35 33 33 24 25 20 20 20 18 12 8 7 10 14 17 20 23 27 29 27 32
54 45 46 47 42 38 36 39 36 32 32 28 29 25 22 20 18 10 10 14 17 21 23 24 26 27 28
51 48 54 47 46 47 47 48 44 40 36 34 34 31 30 31 25 17 10 16 19 22 24 25 26 26 27
64 62 56 51 57 51 53 55 49 47 45 39 36 40 33 43 33 22 14 18 22 27 27 28 28 27 27
68 67 65 62 60 59 58 58 54 51 50 48 45 43 43 42 41 32 22 19 27 30 33 34 32 29 26
70 70 69 69 68 68 69 70 66 60 57 56 57 51 48 48 51 39 32 25 32 38 39 37 34 31 29
73 73 73 74 76 69 75 77 71 69 66 65 64 58 56 57 60 49 41 32 37 42 43 39 37 34 31
79 79 78 81 75 77 84 75 76 78 69 73 69 65 65 58 70 59 49 41 44 50 49 40 36 34 32
81 78 75 77 77 76 81 77 73 82 78 76 78 70 72 68 78 68 62 53 51 58 55 43 28 29 36
80 77 73 76 80 78 79 79 80 84 83 81 79 77 74 77 76 78 62 60 59 63 66 31 21 20 37
83 82 84 86 82 79 78 78 82 83 83 82 82 77 72 75 78 65 66 63 63 70 73 63 36 30 23
Wind_Direction_500mb
191 188 187 180 168 163 152 133 115 103 94 87 92 95 97 102 101 101 101 101 103 105 106 110 109 103 102
195 195 195 191 186 181 180 160 137 118 106 96 97 94 97 100 103 103 103 105 110 112 117 113 108 100 100
203 200 200 198 197 199 198 188 176 154 136 127 111 105 100 100 102 105 105 106 110 116 119 115 109 100 111
197 210 208 206 204 207 209 200 176 162 164 162 142 126 116 106 106 111 113 117 120 123 120 108 107 120 117
198 210 208 212 216 212 213 205 197 201 209 195 178 168 157 142 135 135 141 141 140 137 133 122 120 115 119
207 207 212 219 215 213 214 212 208 218 237 234 216 197 191 182 196 198 179 168 158 150 143 136 131 123 126
215 213 216 219 224 225 228 221 222 232 233 230 230 227 222 212 195 234 249 202 178 168 160 157 150 141 134
218 216 220 225 226 224 231 233 236 234 230 235 235 226 231 220 213 208 270 228 209 188 177 170 162 150 143
227 227 223 224 226 231 229 235 230 236 232 233 242 226 233 235 216 209 234 244 218 198 187 176 170 164 158
230 229 232 230 227 224 231 230 233 234 238 235 236 235 232 238 219 218 210 251 222 206 189 183 180 171 166
231 232 233 235 235 233 231 232 230 233 237 234 233 238 240 228 223 215 210 244 233 208 192 186 181 178 178
233 233 234 235 235 231 236 235 229 230 234 235 235 240 242 239 221 218 215 227 235 218 193 188 186 187 188
232 232 233 237 239 235 236 238 230 228 230 233 238 240 240 242 219 219 219 227 229 212 197 187 188 192 198
234 235 235 240 243 240 240 241 234 226 226 234 235 238 237 234 223 218 214 215 224 219 203 188 188 202 209
235 235 235 238 242 242 240 237 233 228 228 231 233 234 240 243 229 225 220 231 232 214 210 193 183 209 211
237 235 238 243 245 248 246 241 235 230 229 231 229 231 235 226 230 239 232 237 239 223 209 205 204 199 178
Wind_Speed_850mb
26 23 21 17 16 16 14 14 15 17 16 19 20 20 20 19 19 21 21 23 25 28 30 33 40 41 37
31 27 25 21 18 16 14 12 12 15 15 19 20 21 22 22 22 22 21 21 24 28 30 31 32 43 47
31 32 28 24 22 20 20 16 14 15 16 16 16 17 18 20 21 22 23 23 23 24 22 20 34 38 43
33 32 30 27 27 26 25 20 18 18 19 17 16 13 12 12 16 18 19 21 22 24 22 24 35 31 44
38 34 32 31 31 32 32 27 29 24 20 19 17 16 13 8 9 13 15 16 20 20 23 30 32 30 38
38 42 38 37 34 33 35 33 33 24 25 20 20 20 18 12 8 7 10 14 17 20 23 27 29 27 32
54 45 46 47 42 38 36 39 36 32 32 28 29 25 22 20 18 10 10 14 17 21 23 24 26 27 28
51 48 54 47 46 47 47 48 44 40 36 34 34 31 30 31 25 17 10 16 19 22 24 25 26 26 27
64 62 56 51 57 51 53 55 49 47 45 39 36 40 33 43 33 22 14 18 22 27 27 28 28 27 27
68 67 65 62 60 59 58 58 54 51 50 48 45 43 43 42 41 32 22 19 27 30 33 34 32 29 26
70 70 69 69 68 68 69 70 66 60 57 56 57 51 48 48 51 39 32 25 32 38 39 37 34 31 29
73 73 73 74 76 69 75 77 71 69 66 65 64 58 56 57 60 49 41 32 37 42 43 39 37 34 31
79 79 78 81 75 77 84 75 76 78 69 73 69 65 65 58 70 59 49 41 44 50 49 40 36 34 32
81 78 75 77 77 76 81 77 73 82 78 76 78 70 72 68 78 68 62 53 51 58 55 43 28 29 36
80 77 73 76 80 78 79 79 80 84 83 81 79 77 74 77 76 78 62 60 59 63 66 31 21 20 37
83 82 84 86 82 79 78 78 82 83 83 82 82 77 72 75 78 65 66 63 63 70 73 63 36 30 23
Wind_Direction_850mb
191 188 187 180 168 163 152 133 115 103 94 87 92 95 97 102 101 101 101 101 103 105 106 110 109 103 102
195 195 195 191 186 181 180 160 137 118 106 96 97 94 97 100 103 103 103 105 110 112 117 113 108 100 100
203 200 200 198 197 199 198 188 176 154 136 127 111 105 100 100 102 105 105 106 110 116 119 115 109 100 111
197 210 208 206 204 207 209 200 176 162 164 162 142 126 116 106 106 111 113 117 120 123 120 108 107 120 117
198 210 208 212 216 212 213 205 197 201 209 195 178 168 157 142 135 135 141 141 140 137 133 122 120 115 119
207 207 212 219 215 213 214 212 208 218 237 234 216 197 191 182 196 198 179 168 158 150 143 136 131 123 126
215 213 216 219 224 225 228 221 222 232 233 230 230 227 222 212 195 234 249 202 178 168 160 157 150 141 134
218 216 220 225 226 224 231 233 236 234 230 235 235 226 231 220 213 208 270 228 209 188 177 170 162 150 143
227 227 223 224 226 231 229 235 230 236 232 233 242 226 233 235 216 209 234 244 218 198 187 176 170 164 158
230 229 232 230 227 224 231 230 233 234 238 235 236 235 232 238 219 218 210 251 222 206 189 183 180 171 166
231 232 233 235 235 233 231 232 230 233 237 234 233 238 240 228 223 215 210 244 233 208 192 186 181 178 178
233 233 234 235 235 231 236 235 229 230 234 235 235 240 242 239 221 218 215 227 235 218 193 188 186 187 188
232 232 233 237 239 235 236 238 230 228 230 233 238 240 240 242 219 219 219 227 229 212 197 187 188 192 198
234 235 235 240 243 240 240 241 234 226 226 234 235 238 237 234 223 218 214 215 224 219 203 188 188 202 209
235 235 235 238 242 242 240 237 233 228 228 231 233 234 240 243 229 225 220 231 232 214 210 193 183 209 211
237 235 238 243 245 248 246 241 235 230 229 231 229 231 235 226 230 239 232 237 239 223 209 205 204 199 178